Weather History for Ironwood, MI

Change the Weather History Date:

Thursday, February 20, 2014

  Actual Average Record
Temperature  
Mean Temperature 36 °F -  
Max Temperature 42 °F 26 °F 46 °F (2003)
Min Temperature 30 °F 10 °F -7 °F (2009)
Degree Days  
Heating Degree Days 29    
Moisture  
Dew Point 24 °F    
Average Humidity 65    
Maximum Humidity 93    
Minimum Humidity 39    
Precipitation  
Precipitation 0.00 in - - ()
Sea Level Pressure  
Sea Level Pressure 29.48 in    
Wind  
Wind Speed 8 mph (East)    
Max Wind Speed 17 mph    
Max Gust Speed 24 mph    
Visibility 8 miles    
Events      
Averages and records for this station are not official NWS values.
T = Trace of Precipitation, MM = Missing Value Source: NWS Daily Summary

Daily Weather History Graph

Daily Weather History Graph

Search for Another Location

Airport:

Trip Planner

Search our weather history database for the weather conditions in past years. The results will help you decide how hot, cold, wet, or windy it might be!

Date:

Astronomy

Feb. 20, 2014 Rise Set
Actual Time 6:55 AM CST 5:33 PM CST
Civil Twilight 6:25 AM CST 6:04 PM CST
Nautical Twilight 5:50 AM CST 6:39 PM CST
Astronomical Twilight 5:15 AM CST 7:14 PM CST
Moon 11:51 PM CST (2/20) 9:17 AM CST (2/20)
Length of Visible Light 11h 39m
Length of Day
10h 37m
Waning Gibbous, 70% of the Moon is Illuminated
Feb 20
Waning Gibbous
Feb 22
Last Quarter
Mar 1
New
Mar 8
First Quarter
Mar 16
Full

Hourly Weather History & Observations

Time (CST) Temp. Windchill Dew Point Humidity Pressure Visibility Wind Dir Wind Speed Gust Speed Precip Events Conditions
12:15 AM 35.6 °F 31.7 °F 23.0 °F 60% 29.75 in 10.0 mi ESE 4.6 mph - N/A   Mostly Cloudy
12:35 AM 35.6 °F 32.8 °F 24.8 °F 65% 29.75 in 10.0 mi SE 3.5 mph - N/A   Mostly Cloudy
12:55 AM 35.6 °F - 24.8 °F 65% 29.76 in 10.0 mi Calm Calm - N/A   Partly Cloudy
1:15 AM 35.6 °F 31.7 °F 24.8 °F 65% 29.76 in 10.0 mi ENE 4.6 mph - N/A   Mostly Cloudy
1:35 AM 33.8 °F 29.6 °F 24.8 °F 70% 29.75 in 10.0 mi East 4.6 mph - N/A   Overcast
1:55 AM 33.8 °F 28.6 °F 24.8 °F 70% 29.75 in 10.0 mi SE 5.8 mph - N/A   Overcast
2:15 AM 35.6 °F 29.2 °F 23.0 °F 60% 29.74 in 10.0 mi SE 8.1 mph - N/A   Overcast
2:35 AM 35.6 °F 28.6 °F 23.0 °F 60% 29.74 in 10.0 mi SSE 9.2 mph - N/A   Overcast
2:55 AM 33.8 °F 27.7 °F 23.0 °F 65% 29.73 in 10.0 mi ESE 6.9 mph - N/A   Overcast
3:15 AM 30.2 °F 22.6 °F 21.2 °F 69% 29.72 in 10.0 mi East 8.1 mph - N/A   Mostly Cloudy
3:35 AM 33.8 °F 26.4 °F 21.2 °F 60% 29.70 in 10.0 mi East 9.2 mph - N/A   Partly Cloudy
3:55 AM 30.2 °F 22.6 °F 21.2 °F 69% 29.69 in 10.0 mi East 8.1 mph - N/A   Clear
4:15 AM 30.2 °F 20.8 °F 21.2 °F 69% 29.69 in 10.0 mi East 11.5 mph - N/A   Clear
4:35 AM 30.2 °F 21.3 °F 21.2 °F 69% 29.68 in 10.0 mi East 10.4 mph - N/A   Clear
4:55 AM 30.2 °F 22.6 °F 19.4 °F 64% 29.68 in 10.0 mi ENE 8.1 mph - N/A   Clear
5:15 AM 30.2 °F 23.4 °F 21.2 °F 69% 29.68 in 10.0 mi East 6.9 mph - N/A   Clear
5:35 AM 32.0 °F 23.0 °F 21.2 °F 64% 29.67 in 10.0 mi East 11.5 mph - N/A   Mostly Cloudy
5:55 AM 33.8 °F 26.4 °F 21.2 °F 60% 29.66 in 10.0 mi East 9.2 mph - N/A   Overcast
6:15 AM 33.8 °F 27.0 °F 19.4 °F 56% 29.67 in 10.0 mi East 8.1 mph - N/A   Overcast
6:35 AM 33.8 °F 27.7 °F 19.4 °F 56% 29.67 in 10.0 mi East 6.9 mph - N/A   Overcast
6:55 AM 33.8 °F 27.7 °F 19.4 °F 56% 29.66 in 10.0 mi ESE 6.9 mph - N/A   Overcast
7:15 AM 33.8 °F 28.6 °F 17.6 °F 52% 29.66 in 10.0 mi ESE 5.8 mph - N/A   Mostly Cloudy
7:35 AM 32.0 °F 27.5 °F 17.6 °F 55% 29.66 in 10.0 mi ESE 4.6 mph - N/A   Clear
7:55 AM 33.8 °F 27.0 °F 17.6 °F 52% 29.65 in 10.0 mi East 8.1 mph - N/A   Clear
8:15 AM 33.8 °F 27.7 °F 15.8 °F 48% 29.65 in 10.0 mi East 6.9 mph - N/A   Clear
8:35 AM 33.8 °F 26.4 °F 17.6 °F 52% 29.63 in 10.0 mi ESE 9.2 mph - N/A   Mostly Cloudy
8:55 AM 35.6 °F 31.7 °F 17.6 °F 48% 29.63 in 10.0 mi ESE 4.6 mph - N/A   Overcast
9:15 AM 35.6 °F 29.2 °F 17.6 °F 48% 29.62 in 10.0 mi SE 8.1 mph - N/A   Overcast
9:35 AM 35.6 °F 28.6 °F 15.8 °F 44% 29.61 in 10.0 mi SE 9.2 mph 16.1 mph N/A   Overcast
9:55 AM 37.4 °F 30.3 °F 15.8 °F 41% 29.59 in 10.0 mi SE 10.4 mph 19.6 mph N/A   Overcast
10:15 AM 37.4 °F 30.8 °F 15.8 °F 41% 29.59 in 10.0 mi SSE 9.2 mph - N/A   Overcast
10:35 AM 37.4 °F 28.5 °F 15.8 °F 41% 29.60 in 10.0 mi SSE 15.0 mph 24.2 mph N/A   Overcast
10:55 AM 37.4 °F 29.3 °F 15.8 °F 41% 29.59 in 10.0 mi South 12.7 mph 18.4 mph N/A   Overcast
11:15 AM 37.4 °F 30.3 °F 15.8 °F 41% 29.59 in 10.0 mi South 10.4 mph 19.6 mph N/A   Overcast
11:35 AM 37.4 °F 31.4 °F 17.6 °F 45% 29.58 in 10.0 mi ESE 8.1 mph - N/A   Overcast
11:55 AM 39.2 °F 35.0 °F 17.6 °F 42% 29.57 in 10.0 mi ESE 5.8 mph - N/A   Overcast
12:15 PM 41.0 °F 34.3 °F 17.6 °F 39% 29.55 in 10.0 mi SSE 11.5 mph 21.9 mph N/A   Overcast
12:35 PM 42.8 °F 34.8 °F 23.0 °F 46% 29.53 in 10.0 mi SSE 17.3 mph 23.0 mph N/A   Overcast
12:55 PM 41.0 °F 32.8 °F 24.8 °F 53% 29.52 in 10.0 mi SE 16.1 mph 20.7 mph N/A   Overcast
1:15 PM 41.0 °F 33.9 °F 24.8 °F 53% 29.50 in 10.0 mi ESE 12.7 mph 19.6 mph N/A   Overcast
1:35 PM 41.0 °F 34.3 °F 26.6 °F 57% 29.50 in 10.0 mi SE 11.5 mph - N/A   Overcast
1:55 PM 41.0 °F 34.7 °F 26.6 °F 57% 29.49 in 10.0 mi SE 10.4 mph 16.1 mph N/A   Overcast
2:15 PM 39.2 °F 31.6 °F 28.4 °F 65% 29.50 in 10.0 mi SSE 12.7 mph 20.7 mph N/A   Overcast
2:35 PM 39.2 °F 33.6 °F 28.4 °F 65% 29.47 in 10.0 mi ESE 8.1 mph - N/A   Overcast
2:55 PM 39.2 °F 33.0 °F 28.4 °F 65% 29.44 in 10.0 mi East 9.2 mph 16.1 mph N/A   Overcast
3:15 PM 39.2 °F 30.5 °F 28.4 °F 65% 29.42 in 10.0 mi ESE 16.1 mph 19.6 mph N/A   Overcast
3:35 PM 39.2 °F 30.2 °F 28.4 °F 65% 29.41 in 10.0 mi East 17.3 mph 20.7 mph N/A   Overcast
3:55 PM 39.2 °F 33.0 °F 28.4 °F 65% 29.40 in 10.0 mi ESE 9.2 mph - N/A   Overcast
4:15 PM 39.2 °F 31.2 °F 26.6 °F 61% 29.39 in 10.0 mi East 13.8 mph 21.9 mph N/A   Overcast
4:35 PM 39.2 °F 30.5 °F 28.4 °F 65% 29.39 in 10.0 mi East 16.1 mph 23.0 mph N/A   Overcast
4:55 PM 37.4 °F 28.9 °F 28.4 °F 70% 29.39 in 10.0 mi East 13.8 mph 20.7 mph N/A   Overcast
5:15 PM 37.4 °F 28.9 °F 26.6 °F 65% 29.36 in 10.0 mi East 13.8 mph 17.3 mph N/A   Overcast
5:35 PM 37.4 °F 28.9 °F 26.6 °F 65% 29.34 in 10.0 mi ENE 13.8 mph 17.3 mph N/A   Overcast
5:55 PM 37.4 °F 29.8 °F 28.4 °F 70% 29.31 in 10.0 mi ENE 11.5 mph 17.3 mph N/A   Overcast
6:15 PM 35.6 °F 27.1 °F 26.6 °F 70% 29.31 in 8.0 mi ENE 12.7 mph - N/A   Overcast
6:35 PM 35.6 °F 25.5 °F 26.6 °F 70% 29.30 in 3.0 mi East 17.3 mph 23.0 mph N/A   Overcast
6:55 PM 33.8 °F 25.3 °F 28.4 °F 81% 29.27 in 1.8 mi ENE 11.5 mph 19.6 mph N/A   Overcast
7:15 PM 33.8 °F 27.0 °F 28.4 °F 81% 29.27 in 1.0 mi ENE 8.1 mph - N/A   Overcast
7:35 PM 33.8 °F - 28.4 °F 81% 29.27 in 0.2 mi Calm Calm - N/A   Overcast
7:55 PM 32.0 °F 24.2 °F 30.2 °F 93% 29.22 in 0.2 mi NNE 9.2 mph - N/A   Overcast
8:15 PM 32.0 °F 22.5 °F 30.2 °F 93% 29.18 in 0.2 mi NE 12.7 mph - N/A   Overcast
8:35 PM 32.0 °F 24.2 °F 30.2 °F 93% 29.15 in 0.8 mi NE 9.2 mph 16.1 mph N/A   Overcast
8:55 PM 32.0 °F 24.2 °F 30.2 °F 93% 29.12 in 0.5 mi NE 9.2 mph - N/A   Overcast
9:15 PM 32.0 °F 23.6 °F 28.4 °F 87% 29.10 in 0.8 mi NE 10.4 mph 16.1 mph N/A   Overcast
9:35 PM 32.0 °F 25.6 °F 28.4 °F 87% 29.09 in 1.8 mi NE 6.9 mph - N/A   Overcast
9:55 PM 32.0 °F 27.5 °F 28.4 °F 87% 29.08 in 1.2 mi NNE 4.6 mph - N/A   Overcast
10:15 PM 32.0 °F - 28.4 °F 87% 29.07 in 1.0 mi North - - N/A   Overcast
10:35 PM 30.2 °F 23.4 °F 28.4 °F 93% 29.06 in 0.5 mi NNW 6.9 mph - N/A   Overcast
10:55 PM 30.2 °F 21.9 °F 28.4 °F 93% 29.04 in 1.0 mi North 9.2 mph - N/A   Overcast
11:15 PM 30.2 °F 22.6 °F 26.6 °F 86% 29.02 in 1.0 mi North 8.1 mph - N/A   Overcast
11:35 PM 30.2 °F 22.6 °F 28.4 °F 93% 28.99 in 0.8 mi North 8.1 mph - N/A   Overcast
11:55 PM 30.2 °F 22.6 °F 26.6 °F 86% 28.97 in 0.8 mi North 8.1 mph - N/A   Overcast